Location: Ipswich
(52.0579°N, 1.1528°E)
Time: 20:31:20
(UTC+01:00)

ISS - Pass Details

Date: 12 May 2026
Orbit: 414 x 424 km, 51.6° (Epoch: 15 May)

Event Time Altitude Azimuth Distance (km) Brightness Sun altitude
Rises 23:05:54 0° 268° (W) 2,352 0.4 -15.9°
Reaches altitude 10° 23:07:59 10° 268° (W) 1,490 -0.7 -16.1°
Maximum altitude 23:11:20 86° 183° (S) 422 -3.9 -16.3°
Enters shadow 23:13:26 21° 92° (E) 992 -2.1 -16.4°
